Home > Weather > Khan Yunis > Past weeks

Flag for Palestinian Territories Weather for the Past 2 Weeks in Khan Yunis, Gaza Strip, Palestinian Territories

Now
48 °F

Clear.


Feels Like: 46 °F
Forecast: 49 / 63 °F
Wind: 5 mph from Southwest

Location: El Arish

Current Time: Feb 8, 2016 at 3:12:41 AM

Latest Report: Feb 8, 2016 at 2:00 AM


Visibility: 10 mi

Pressure: 30.18 "Hg

Humidity: 100%

Dew point: 48 °F

Location of Khan YunisLocation

Historic Weather in Khan Yunis — Graph

°F

Khan Yunis Temperature Yesterday

Maximum temperature yesterday: 61 °F (at 12:00 PM)
Minimum temperature yesterday: 48 °F (at 7:00 AM)
Average temperature yesterday: 53 °F

High & Low Weather Summary for the Past Weeks

 TemperatureHumidityPressure
High79 °F (Feb 4, 3:00 PM)100% (Jan 24, 12:00 AM)30.45 "Hg (Jan 24, 12:00 AM)
Low36 °F (Jan 28, 6:00 AM)21% (Feb 4, 3:00 PM)29.95 "Hg (Feb 5, 6:00 AM)
Average53 °F85%30.19 "Hg
* Reported Midnight between Jan 23 and Jan 24 — Midnight between Feb 7 and Feb 8, Khan Yunis, Weather by CustomWeather, © 2016

Note: Actual official high and low records may vary slightly from our data, if they occured in-between our weather recording intervals... More about our weather records

Advertising

Khan Yunis Weather History for the Previous 24 Hours

 ConditionsComfort  
Time TempWeatherWind HumidityBarometerVisibility
12:00 AM
Mon, Feb 8
52 °FClear.6 mph100%30.18 "Hg10 mi
11:00 PM
Sun, Feb 7
52 °FClear.7 mph100%30.18 "Hg10 mi
10:00 PM52 °FClear.8 mph100%30.15 "Hg10 mi
9:00 PM52 °FClear.10 mph88%30.15 "Hg10 mi
8:00 PM52 °FClear.7 mph88%30.15 "Hg10 mi
7:00 PM52 °FPassing clouds.7 mph88%30.12 "HgN/A
6:00 PM52 °FPassing clouds.12 mph72%30.09 "HgN/A
5:00 PM54 °FPartly sunny.12 mph58%30.09 "HgN/A
4:00 PM57 °FPartly sunny.14 mph55%30.07 "HgN/A
3:00 PM57 °FPartly sunny.17 mph51%30.07 "HgN/A
2:00 PM59 °FPartly sunny.16 mph48%30.07 "HgN/A
1:00 PM59 °FPartly sunny.17 mph48%30.07 "HgN/A
12:00 PM61 °FPartly sunny.13 mph48%30.07 "HgN/A
11:00 AM57 °FPartly sunny.17 mph51%30.09 "HgN/A
10:00 AM55 °FPartly sunny.16 mph59%30.09 "HgN/A
9:00 AM54 °FPartly sunny.16 mph63%30.07 "HgN/A
8:00 AM52 °FScattered clouds.14 mph77%30.04 "HgN/A
7:00 AM48 °FScattered clouds.15 mph94%30.04 "HgN/A
6:00 AM50 °FClear.13 mph100%30.07 "Hg10 mi
5:00 AM50 °FClear.12 mph100%30.01 "Hg10 mi
Weather by CustomWeather, © 2016

See weather overviewHow to use our weather pages